PRIVATE WETTERSTATION BILLIGHEIM-ALLFELD                       ZURCK
Wetterdaten: Donnerstag, 11.12.2014
Datum Zeit Temp. A. Temp. A. min Temp. A. max Feuchte A. Luftdruck Regen Wind Richtung Richtung Sonnenschein ET Solar Taupunkt Windchill Windben Empfang
11.12.2014 00:00 3,3 C 3,3 C 3,3 C 92 % 1019,0 hPa 0,0 l/m 8,0 km/h (2 Bft) SW 225 0 min 0,000 mm 0 W/m 2,1 C 1,8 C 19,3 km/h (3 Bft) 100 %
11.12.2014 00:10 3,3 C 3,3 C 3,3 C 92 % 1019,1 hPa 0,0 l/m 6,4 km/h (2 Bft) SW 225 0 min 0,000 mm 0 W/m 2,1 C 3,3 C 16,1 km/h (3 Bft) 100 %
11.12.2014 00:20 3,4 C 3,3 C 3,4 C 92 % 1019,0 hPa 0,0 l/m 6,4 km/h (2 Bft) SW 225 0 min 0,000 mm 0 W/m 2,2 C 3,4 C 16,1 km/h (3 Bft) 100 %
11.12.2014 00:30 3,4 C 3,4 C 3,4 C 92 % 1018,8 hPa 0,0 l/m 4,8 km/h (1 Bft) SW 225 0 min 0,000 mm 0 W/m 2,2 C 3,4 C 16,1 km/h (3 Bft) 100 %
11.12.2014 00:40 3,4 C 3,4 C 3,4 C 92 % 1018,8 hPa 0,0 l/m 6,4 km/h (2 Bft) SW 225 0 min 0,000 mm 0 W/m 2,2 C 3,4 C 14,5 km/h (3 Bft) 100 %
11.12.2014 00:50 3,4 C 3,4 C 3,4 C 92 % 1018,7 hPa 0,0 l/m 9,7 km/h (2 Bft) S-SW 202 0 min 0,000 mm 0 W/m 2,2 C 0,5 C 16,1 km/h (3 Bft) 100 %
11.12.2014 01:00 3,4 C 3,4 C 3,4 C 92 % 1018,6 hPa 0,0 l/m 11,3 km/h (2 Bft) S-SW 202 0 min 0,000 mm 0 W/m 2,2 C -0,6 C 24,1 km/h (4 Bft) 100 %
11.12.2014 01:10 3,4 C 3,4 C 3,5 C 92 % 1018,6 hPa 0,0 l/m 9,7 km/h (2 Bft) S-SW 202 0 min 0,000 mm 0 W/m 2,2 C 0,5 C 17,7 km/h (3 Bft) 100 %
11.12.2014 01:20 3,4 C 3,4 C 3,5 C 92 % 1018,5 hPa 0,0 l/m 9,7 km/h (2 Bft) S-SW 202 0 min 0,000 mm 0 W/m 2,2 C 0,5 C 20,9 km/h (4 Bft) 100 %
11.12.2014 01:30 3,4 C 3,4 C 3,5 C 92 % 1018,4 hPa 0,0 l/m 8,0 km/h (2 Bft) S-SW 202 0 min 0,000 mm 0 W/m 2,2 C 1,9 C 14,5 km/h (3 Bft) 100 %
11.12.2014 01:40 3,4 C 3,4 C 3,5 C 92 % 1018,4 hPa 0,0 l/m 6,4 km/h (2 Bft) S-SW 202 0 min 0,000 mm 0 W/m 2,2 C 3,4 C 11,3 km/h (2 Bft) 100 %
11.12.2014 01:50 3,5 C 3,4 C 3,5 C 92 % 1018,4 hPa 0,0 l/m 6,4 km/h (2 Bft) S-SW 202 0 min 0,000 mm 0 W/m 2,3 C 3,5 C 16,1 km/h (3 Bft) 100 %
11.12.2014 02:00 3,5 C 3,4 C 3,5 C 92 % 1018,3 hPa 0,0 l/m 11,3 km/h (2 Bft) S-SW 202 0 min 0,000 mm 0 W/m 2,3 C -0,5 C 19,3 km/h (3 Bft) 100 %
11.12.2014 02:10 3,5 C 3,5 C 3,6 C 92 % 1018,1 hPa 0,0 l/m 9,7 km/h (2 Bft) S-SW 202 0 min 0,000 mm 0 W/m 2,3 C 0,6 C 22,5 km/h (4 Bft) 100 %
11.12.2014 02:20 3,6 C 3,5 C 3,6 C 92 % 1018,0 hPa 0,0 l/m 8,0 km/h (2 Bft) SW 225 0 min 0,000 mm 0 W/m 2,4 C 2,1 C 19,3 km/h (3 Bft) 100 %
11.12.2014 02:30 3,6 C 3,6 C 3,6 C 92 % 1017,8 hPa 0,0 l/m 8,0 km/h (2 Bft) SW 225 0 min 0,000 mm 0 W/m 2,4 C 2,1 C 17,7 km/h (3 Bft) 100 %
11.12.2014 02:40 3,6 C 3,6 C 3,6 C 92 % 1017,3 hPa 0,0 l/m 8,0 km/h (2 Bft) S-SW 202 0 min 0,000 mm 0 W/m 2,4 C 2,1 C 19,3 km/h (3 Bft) 100 %
11.12.2014 02:50 3,6 C 3,6 C 3,6 C 92 % 1017,7 hPa 0,0 l/m 12,9 km/h (3 Bft) S-SW 202 0 min 0,000 mm 0 W/m 2,4 C -1,4 C 22,5 km/h (4 Bft) 100 %
11.12.2014 03:00 3,7 C 3,6 C 3,7 C 92 % 1017,6 hPa 0,0 l/m 14,5 km/h (3 Bft) S-SW 202 0 min 0,000 mm 0 W/m 2,5 C -2,2 C 25,7 km/h (4 Bft) 100 %
11.12.2014 03:10 3,7 C 3,6 C 3,7 C 92 % 1017,6 hPa 0,0 l/m 12,9 km/h (3 Bft) SW 225 0 min 0,000 mm 0 W/m 2,5 C -1,3 C 25,7 km/h (4 Bft) 100 %
11.12.2014 03:20 3,7 C 3,7 C 3,7 C 92 % 1017,6 hPa 0,0 l/m 9,7 km/h (2 Bft) SW 225 0 min 0,000 mm 0 W/m 2,5 C 0,9 C 22,5 km/h (4 Bft) 100 %
11.12.2014 03:30 3,7 C 3,7 C 3,7 C 92 % 1017,6 hPa 0,0 l/m 8,0 km/h (2 Bft) W-SW 247 0 min 0,000 mm 0 W/m 2,5 C 2,2 C 20,9 km/h (4 Bft) 100 %
11.12.2014 03:40 3,8 C 3,7 C 3,8 C 92 % 1017,3 hPa 0,0 l/m 9,7 km/h (2 Bft) SW 225 0 min 0,000 mm 0 W/m 2,6 C 1,0 C 25,7 km/h (4 Bft) 100 %
11.12.2014 03:50 3,8 C 3,8 C 3,8 C 92 % 1017,4 hPa 0,0 l/m 9,7 km/h (2 Bft) SW 225 0 min 0,000 mm 0 W/m 2,6 C 1,0 C 22,5 km/h (4 Bft) 100 %
11.12.2014 04:00 3,8 C 3,8 C 3,8 C 92 % 1017,3 hPa 0,0 l/m 8,0 km/h (2 Bft) SW 225 0 min 0,000 mm 0 W/m 2,6 C 2,3 C 22,5 km/h (4 Bft) 100 %
11.12.2014 04:10 3,9 C 3,8 C 3,9 C 92 % 1017,2 hPa 0,0 l/m 11,3 km/h (2 Bft) SW 225 0 min 0,000 mm 0 W/m 2,7 C -0,1 C 25,7 km/h (4 Bft) 100 %
11.12.2014 04:20 3,9 C 3,9 C 3,9 C 92 % 1017,1 hPa 0,0 l/m 9,7 km/h (2 Bft) SW 225 0 min 0,000 mm 0 W/m 2,7 C 1,1 C 20,9 km/h (4 Bft) 100 %
11.12.2014 04:30 3,9 C 3,9 C 3,9 C 92 % 1016,9 hPa 0,0 l/m 9,7 km/h (2 Bft) SW 225 0 min 0,000 mm 0 W/m 2,7 C 1,1 C 22,5 km/h (4 Bft) 100 %
11.12.2014 04:40 4,0 C 3,9 C 4,0 C 92 % 1016,7 hPa 0,0 l/m 8,0 km/h (2 Bft) SW 225 0 min 0,000 mm 0 W/m 2,8 C 2,6 C 16,1 km/h (3 Bft) 100 %
11.12.2014 04:50 4,0 C 3,9 C 4,0 C 92 % 1016,4 hPa 0,0 l/m 9,7 km/h (2 Bft) S-SW 202 0 min 0,000 mm 0 W/m 2,8 C 1,2 C 16,1 km/h (3 Bft) 100 %
11.12.2014 05:00 3,9 C 3,9 C 4,0 C 92 % 1016,5 hPa 0,0 l/m 9,7 km/h (2 Bft) SW 225 0 min 0,000 mm 0 W/m 2,7 C 1,1 C 24,1 km/h (4 Bft) 100 %
11.12.2014 05:10 4,0 C 3,9 C 4,0 C 92 % 1016,4 hPa 0,0 l/m 11,3 km/h (2 Bft) SW 225 0 min 0,000 mm 0 W/m 2,8 C 0,1 C 20,9 km/h (4 Bft) 100 %
11.12.2014 05:20 4,1 C 4,0 C 4,1 C 92 % 1016,4 hPa 0,0 l/m 12,9 km/h (3 Bft) SW 225 0 min 0,000 mm 0 W/m 2,9 C -0,8 C 20,9 km/h (4 Bft) 100 %
11.12.2014 05:30 4,1 C 4,1 C 4,1 C 92 % 1016,3 hPa 0,0 l/m 16,1 km/h (3 Bft) SW 225 0 min 0,000 mm 0 W/m 2,9 C -2,6 C 30,6 km/h (5 Bft) 100 %
11.12.2014 05:40 4,1 C 4,1 C 4,1 C 92 % 1016,2 hPa 0,0 l/m 16,1 km/h (3 Bft) SW 225 0 min 0,000 mm 0 W/m 2,9 C -2,6 C 35,4 km/h (5 Bft) 99 %
11.12.2014 05:50 4,2 C 4,1 C 4,2 C 93 % 1016,2 hPa 0,0 l/m 14,5 km/h (3 Bft) SW 225 0 min 0,000 mm 0 W/m 3,2 C -1,6 C 35,4 km/h (5 Bft) 100 %
11.12.2014 06:00 4,2 C 4,2 C 4,2 C 93 % 1016,3 hPa 0,0 l/m 12,9 km/h (3 Bft) SW 225 0 min 0,000 mm 0 W/m 3,2 C -0,7 C 25,7 km/h (4 Bft) 100 %
11.12.2014 06:10 4,2 C 4,2 C 4,2 C 93 % 1016,2 hPa 0,0 l/m 12,9 km/h (3 Bft) S-SW 202 0 min 0,000 mm 0 W/m 3,2 C -0,7 C 30,6 km/h (5 Bft) 99 %
11.12.2014 06:20 4,2 C 4,2 C 4,2 C 93 % 1016,2 hPa 0,0 l/m 14,5 km/h (3 Bft) SW 225 0 min 0,000 mm 0 W/m 3,2 C -1,6 C 32,2 km/h (5 Bft) 100 %
11.12.2014 06:30 4,3 C 4,2 C 4,3 C 92 % 1016,4 hPa 0,0 l/m 12,9 km/h (3 Bft) SW 225 0 min 0,000 mm 0 W/m 3,1 C -0,6 C 35,4 km/h (5 Bft) 100 %
11.12.2014 06:40 4,3 C 4,3 C 4,3 C 92 % 1016,2 hPa 0,0 l/m 12,9 km/h (3 Bft) SW 225 0 min 0,000 mm 0 W/m 3,1 C -0,6 C 29,0 km/h (5 Bft) 100 %
11.12.2014 06:50 4,4 C 4,3 C 4,4 C 92 % 1016,3 hPa 0,0 l/m 16,1 km/h (3 Bft) SW 225 0 min 0,000 mm 0 W/m 3,2 C -2,2 C 32,2 km/h (5 Bft) 100 %
11.12.2014 07:00 4,4 C 4,4 C 4,4 C 92 % 1016,1 hPa 0,0 l/m 14,5 km/h (3 Bft) SW 225 0 min 0,000 mm 0 W/m 3,2 C -1,4 C 32,2 km/h (5 Bft) 100 %
11.12.2014 07:10 4,4 C 4,4 C 4,5 C 92 % 1016,0 hPa 0,0 l/m 17,7 km/h (3 Bft) SW 225 0 min 0,000 mm 0 W/m 3,2 C -3,0 C 32,2 km/h (5 Bft) 90 %
11.12.2014 07:20 4,5 C 4,4 C 4,5 C 92 % 1015,9 hPa 0,0 l/m 16,1 km/h (3 Bft) SW 225 0 min 0,000 mm 0 W/m 3,3 C -2,1 C 32,2 km/h (5 Bft) 100 %
11.12.2014 07:30 4,5 C 4,5 C 4,5 C 92 % 1016,0 hPa 0,0 l/m 12,9 km/h (3 Bft) SW 225 0 min 0,000 mm 0 W/m 3,3 C -0,4 C 24,1 km/h (4 Bft) 100 %
11.12.2014 07:40 4,4 C 4,4 C 4,5 C 92 % 1016,0 hPa 0,0 l/m 16,1 km/h (3 Bft) S-SW 202 0 min 0,000 mm 0 W/m 3,2 C -2,2 C 27,4 km/h (4 Bft) 100 %
11.12.2014 07:50 4,4 C 4,4 C 4,4 C 92 % 1016,0 hPa 0,0 l/m 16,1 km/h (3 Bft) S-SW 202 0 min 0,000 mm 0 W/m 3,2 C -2,2 C 29,0 km/h (5 Bft) 100 %
11.12.2014 08:00 4,4 C 4,4 C 4,4 C 92 % 1016,1 hPa 0,0 l/m 16,1 km/h (3 Bft) S-SW 202 0 min 0,000 mm 0 W/m 3,2 C -2,2 C 30,6 km/h (5 Bft) 100 %
11.12.2014 08:10 4,4 C 4,4 C 4,4 C 92 % 1015,8 hPa 0,0 l/m 14,5 km/h (3 Bft) SW 225 0 min 0,000 mm 0 W/m 3,2 C -1,4 C 25,7 km/h (4 Bft) 100 %
11.12.2014 08:20 4,5 C 4,4 C 4,5 C 92 % 1015,8 hPa 0,0 l/m 16,1 km/h (3 Bft) SW 225 0 min 0,000 mm 0 W/m 3,3 C -2,1 C 32,2 km/h (5 Bft) 100 %
11.12.2014 08:30 4,6 C 4,5 C 4,6 C 92 % 1015,9 hPa 0,0 l/m 14,5 km/h (3 Bft) S-SW 202 0 min 0,000 mm 5 W/m 3,4 C -1,1 C 27,4 km/h (4 Bft) 100 %
11.12.2014 08:40 4,7 C 4,6 C 4,7 C 91 % 1015,9 hPa 0,0 l/m 14,5 km/h (3 Bft) S-SW 202 0 min 0,000 mm 5 W/m 3,4 C -1,0 C 25,7 km/h (4 Bft) 100 %
11.12.2014 08:50 4,7 C 4,7 C 4,7 C 91 % 1015,6 hPa 0,0 l/m 17,7 km/h (3 Bft) S-SW 202 0 min 0,000 mm 12 W/m 3,4 C -2,6 C 32,2 km/h (5 Bft) 100 %
11.12.2014 09:00 4,8 C 4,7 C 4,8 C 91 % 1015,8 hPa 0,0 l/m 19,3 km/h (3 Bft) S-SW 202 0 min 0,025 mm 16 W/m 3,5 C -3,1 C 32,2 km/h (5 Bft) 100 %
11.12.2014 09:10 4,9 C 4,8 C 4,9 C 90 % 1015,8 hPa 0,0 l/m 17,7 km/h (3 Bft) S-SW 202 0 min 0,000 mm 12 W/m 3,4 C -2,3 C 33,8 km/h (5 Bft) 92 %
11.12.2014 09:20 4,9 C 4,9 C 5,0 C 90 % 1015,7 hPa 0,0 l/m 17,7 km/h (3 Bft) SW 225 0 min 0,000 mm 11 W/m 3,4 C -2,3 C 30,6 km/h (5 Bft) 100 %
11.12.2014 09:30 5,0 C 4,9 C 5,0 C 90 % 1015,7 hPa 0,0 l/m 16,1 km/h (3 Bft) SW 225 0 min 0,000 mm 16 W/m 3,5 C -1,5 C 29,0 km/h (5 Bft) 100 %
11.12.2014 09:40 5,1 C 5,0 C 5,1 C 90 % 1015,7 hPa 0,0 l/m 17,7 km/h (3 Bft) S-SW 202 0 min 0,000 mm 28 W/m 3,6 C -2,1 C 33,8 km/h (5 Bft) 100 %
11.12.2014 09:50 5,2 C 5,1 C 5,2 C 89 % 1015,7 hPa 0,0 l/m 20,9 km/h (4 Bft) SW 225 0 min 0,000 mm 42 W/m 3,5 C -3,3 C 37,0 km/h (5 Bft) 100 %
11.12.2014 10:00 5,3 C 5,2 C 5,3 C 89 % 1015,7 hPa 0,0 l/m 19,3 km/h (3 Bft) S-SW 202 0 min 0,025 mm 37 W/m 3,6 C -2,5 C 37,0 km/h (5 Bft) 100 %
11.12.2014 10:10 5,4 C 5,3 C 5,4 C 88 % 1015,5 hPa 0,0 l/m 20,9 km/h (4 Bft) SW 225 0 min 0,000 mm 39 W/m 3,6 C -3,0 C 33,8 km/h (5 Bft) 100 %
11.12.2014 10:20 5,4 C 5,4 C 5,4 C 87 % 1015,7 hPa 0,0 l/m 17,7 km/h (3 Bft) SW 225 0 min 0,000 mm 21 W/m 3,4 C -1,7 C 37,0 km/h (5 Bft) 100 %
11.12.2014 10:30 5,4 C 5,4 C 5,4 C 87 % 1015,6 hPa 0,0 l/m 20,9 km/h (4 Bft) SW 225 0 min 0,000 mm 33 W/m 3,4 C -3,0 C 45,1 km/h (6 Bft) 100 %
11.12.2014 10:40 5,6 C 5,4 C 5,6 C 87 % 1015,6 hPa 0,0 l/m 19,3 km/h (3 Bft) SW 225 0 min 0,000 mm 39 W/m 3,6 C -2,1 C 33,8 km/h (5 Bft) 100 %
11.12.2014 10:50 5,6 C 5,6 C 5,6 C 87 % 1015,6 hPa 0,0 l/m 19,3 km/h (3 Bft) SW 225 0 min 0,000 mm 30 W/m 3,6 C -2,1 C 37,0 km/h (5 Bft) 100 %
11.12.2014 11:00 5,6 C 5,6 C 5,6 C 87 % 1015,6 hPa 0,0 l/m 15,4 km/h (3 Bft) W-SW 251 0 min 0,001 mm 28 W/m 3,6 C -0,4 C 33,8 km/h (5 Bft) 99 %
11.12.2014 11:10 5,6 C 5,6 C 5,6 C 87 % 1015,4 hPa 0,0 l/m 19,0 km/h (3 Bft) S-SW 212 0 min 0,025 mm 33 W/m 3,6 C -2,0 C 32,2 km/h (5 Bft) 100 %
11.12.2014 11:20 5,7 C 5,6 C 5,7 C 86 % 1015,2 hPa 0,0 l/m 23,4 km/h (4 Bft) S-SW 200 0 min 0,000 mm 23 W/m 3,5 C -3,5 C 41,8 km/h (6 Bft) 100 %
11.12.2014 11:30 5,7 C 5,7 C 5,7 C 85 % 1015,2 hPa 0,0 l/m 17,5 km/h (3 Bft) S-SW 210 0 min 0,000 mm 35 W/m 3,4 C -1,2 C 35,4 km/h (5 Bft) 100 %
11.12.2014 11:40 5,8 C 5,7 C 5,8 C 85 % 1015,0 hPa 0,0 l/m 22,3 km/h (4 Bft) S-SW 213 0 min 0,000 mm 23 W/m 3,5 C -3,0 C 43,5 km/h (6 Bft) 100 %
11.12.2014 11:50 5,9 C 5,8 C 5,9 C 84 % 1014,7 hPa 0,0 l/m 19,9 km/h (4 Bft) SW 227 0 min 0,000 mm 16 W/m 3,4 C -2,0 C 37,0 km/h (5 Bft) 99 %
11.12.2014 12:00 5,9 C 5,8 C 5,9 C 85 % 1014,4 hPa 0,0 l/m 19,5 km/h (3 Bft) SW 230 0 min 0,026 mm 44 W/m 3,6 C -1,8 C 33,8 km/h (5 Bft) 100 %
11.12.2014 12:10 5,9 C 5,8 C 5,9 C 85 % 1014,3 hPa 0,0 l/m 20,7 km/h (4 Bft) S-SW 213 0 min 0,000 mm 33 W/m 3,6 C -2,3 C 38,6 km/h (5 Bft) 100 %
11.12.2014 12:20 5,9 C 5,9 C 5,9 C 84 % 1014,1 hPa 0,0 l/m 25,6 km/h (4 Bft) SW 226 0 min 0,000 mm 16 W/m 3,4 C -3,9 C 43,5 km/h (6 Bft) 100 %
11.12.2014 12:30 5,8 C 5,8 C 5,9 C 85 % 1014,1 hPa 0,0 l/m 19,1 km/h (3 Bft) W-SW 250 0 min 0,000 mm 19 W/m 3,5 C -1,8 C 41,8 km/h (6 Bft) 100 %
11.12.2014 12:40 5,9 C 5,8 C 5,9 C 85 % 1013,8 hPa 0,0 l/m 26,6 km/h (4 Bft) S-SW 210 0 min 0,000 mm 21 W/m 3,6 C -4,2 C 53,1 km/h (7 Bft) 100 %
11.12.2014 12:50 5,9 C 5,9 C 5,9 C 85 % 1013,7 hPa 0,0 l/m 25,4 km/h (4 Bft) W 261 0 min 0,000 mm 23 W/m 3,6 C -3,8 C 46,7 km/h (6 Bft) 100 %
11.12.2014 13:00 5,9 C 5,9 C 5,9 C 85 % 1013,6 hPa 0,0 l/m 24,0 km/h (4 Bft) W-SW 257 0 min 0,050 mm 23 W/m 3,6 C -3,4 C 53,1 km/h (7 Bft) 100 %
11.12.2014 13:10 5,8 C 5,8 C 5,9 C 86 % 1013,5 hPa 0,0 l/m 24,2 km/h (4 Bft) W-SW 245 0 min 0,000 mm 56 W/m 3,6 C -3,6 C 48,3 km/h (6 Bft) 100 %
11.12.2014 13:20 5,9 C 5,8 C 5,9 C 86 % 1013,4 hPa 0,0 l/m 22,0 km/h (4 Bft) W-SW 250 0 min 0,000 mm 35 W/m 3,7 C -2,7 C 43,5 km/h (6 Bft) 100 %
11.12.2014 13:30 5,9 C 5,9 C 6,0 C 85 % 1013,2 hPa 0,0 l/m 24,1 km/h (4 Bft) SW 225 0 min 0,000 mm 51 W/m 3,6 C -3,4 C 48,3 km/h (6 Bft) 100 %
11.12.2014 13:40 6,1 C 5,9 C 6,1 C 85 % 1013,2 hPa 0,0 l/m 25,7 km/h (4 Bft) SW 225 0 min 0,000 mm 44 W/m 3,8 C -3,7 C 51,5 km/h (7 Bft) 100 %
11.12.2014 13:50 6,1 C 6,1 C 6,1 C 85 % 1013,1 hPa 0,0 l/m 25,7 km/h (4 Bft) SW 225 0 min 0,000 mm 35 W/m 3,8 C -3,7 C 48,3 km/h (6 Bft) 100 %
11.12.2014 14:00 6,1 C 6,1 C 6,1 C 84 % 1013,0 hPa 0,0 l/m 25,7 km/h (4 Bft) SW 225 0 min 0,051 mm 35 W/m 3,6 C -3,7 C 51,5 km/h (7 Bft) 100 %
11.12.2014 14:10 6,2 C 6,1 C 6,2 C 85 % 1012,9 hPa 0,0 l/m 25,7 km/h (4 Bft) SW 225 0 min 0,000 mm 62 W/m 3,9 C -3,5 C 49,9 km/h (6 Bft) 100 %
11.12.2014 14:20 6,1 C 6,1 C 6,2 C 86 % 1013,0 hPa 0,0 l/m 24,1 km/h (4 Bft) SW 225 0 min 0,000 mm 47 W/m 3,9 C -3,2 C 48,3 km/h (6 Bft) 100 %
11.12.2014 14:30 5,9 C 5,9 C 6,1 C 87 % 1013,0 hPa 0,2 l/m 24,1 km/h (4 Bft) SW 225 0 min 0,000 mm 26 W/m 3,9 C -3,4 C 45,1 km/h (6 Bft) 100 %
11.12.2014 14:40 5,7 C 5,7 C 5,9 C 88 % 1012,8 hPa 0,0 l/m 24,1 km/h (4 Bft) SW 225 0 min 0,000 mm 21 W/m 3,9 C -3,7 C 48,3 km/h (6 Bft) 100 %
11.12.2014 14:50 5,7 C 5,7 C 5,8 C 88 % 1012,9 hPa 0,0 l/m 22,5 km/h (4 Bft) W-SW 247 0 min 0,000 mm 23 W/m 3,9 C -3,2 C 45,1 km/h (6 Bft) 100 %
11.12.2014 15:00 5,6 C 5,6 C 5,7 C 89 % 1012,9 hPa 0,0 l/m 22,5 km/h (4 Bft) W-SW 247 0 min 0,025 mm 14 W/m 3,9 C -3,3 C 41,8 km/h (6 Bft) 100 %
11.12.2014 15:10 5,4 C 5,4 C 5,6 C 90 % 1013,2 hPa 0,2 l/m 22,5 km/h (4 Bft) SW 225 0 min 0,000 mm 14 W/m 3,9 C -3,6 C 45,1 km/h (6 Bft) 100 %
11.12.2014 15:20 5,3 C 5,3 C 5,4 C 91 % 1013,2 hPa 0,0 l/m 22,5 km/h (4 Bft) W-SW 247 0 min 0,000 mm 16 W/m 4,0 C -3,7 C 51,5 km/h (7 Bft) 100 %
11.12.2014 15:30 5,3 C 5,3 C 5,3 C 91 % 1013,2 hPa 0,2 l/m 20,9 km/h (4 Bft) SW 225 0 min 0,000 mm 12 W/m 4,0 C -3,1 C 46,7 km/h (6 Bft) 100 %
11.12.2014 15:40 5,3 C 5,3 C 5,3 C 91 % 1013,2 hPa 0,0 l/m 24,1 km/h (4 Bft) SW 225 0 min 0,000 mm 9 W/m 4,0 C -4,2 C 51,5 km/h (7 Bft) 100 %
11.12.2014 15:50 5,3 C 5,3 C 5,3 C 91 % 1013,1 hPa 0,0 l/m 24,1 km/h (4 Bft) SW 225 0 min 0,000 mm 7 W/m 4,0 C -4,2 C 43,5 km/h (6 Bft) 100 %
11.12.2014 16:00 5,3 C 5,3 C 5,3 C 91 % 1013,4 hPa 0,0 l/m 25,7 km/h (4 Bft) SW 225 0 min 0,025 mm 5 W/m 4,0 C -4,8 C 49,9 km/h (6 Bft) 100 %
11.12.2014 16:10 5,3 C 5,3 C 5,3 C 91 % 1013,3 hPa 0,0 l/m 22,5 km/h (4 Bft) W-SW 247 0 min 0,000 mm 0 W/m 4,0 C -3,7 C 43,5 km/h (6 Bft) 100 %
11.12.2014 16:20 5,3 C 5,3 C 5,3 C 91 % 1013,3 hPa 0,2 l/m 24,1 km/h (4 Bft) SW 225 0 min 0,000 mm 0 W/m 4,0 C -4,2 C 49,9 km/h (6 Bft) 100 %
11.12.2014 16:30 5,2 C 5,2 C 5,3 C 91 % 1013,3 hPa 0,0 l/m 22,5 km/h (4 Bft) SW 225 0 min 0,000 mm 0 W/m 3,9 C -3,8 C 54,7 km/h (7 Bft) 100 %
11.12.2014 16:40 5,1 C 5,1 C 5,3 C 92 % 1013,3 hPa 0,0 l/m 22,4 km/h (4 Bft) SW 224 0 min 0,001 mm 0 W/m 3,9 C -3,9 C 41,8 km/h (6 Bft) 100 %
11.12.2014 16:50 5,1 C 5,1 C 5,1 C 92 % 1013,4 hPa 0,2 l/m 23,5 km/h (4 Bft) SW 221 0 min 0,000 mm 0 W/m 3,9 C -4,3 C 43,5 km/h (6 Bft) 100 %
11.12.2014 17:00 5,1 C 5,1 C 5,1 C 92 % 1013,6 hPa 0,0 l/m 22,7 km/h (4 Bft) SW 224 0 min 0,025 mm 0 W/m 3,9 C -4,0 C 40,2 km/h (6 Bft) 90 %
11.12.2014 17:10 5,1 C 5,0 C 5,1 C 92 % 1013,5 hPa 0,4 l/m 20,9 km/h (4 Bft) S-SW 202 0 min 0,000 mm 0 W/m 3,9 C -3,4 C 38,6 km/h (5 Bft) 100 %
11.12.2014 17:20 5,0 C 5,0 C 5,1 C 92 % 1013,5 hPa 0,2 l/m 20,5 km/h (4 Bft) W 262 0 min 0,000 mm 0 W/m 3,8 C -3,4 C 37,0 km/h (5 Bft) 100 %
11.12.2014 17:30 5,0 C 5,0 C 5,0 C 92 % 1013,4 hPa 0,0 l/m 20,1 km/h (4 Bft) SW 219 0 min 0,000 mm 0 W/m 3,8 C -3,2 C 40,2 km/h (6 Bft) 100 %
11.12.2014 17:40 5,1 C 5,0 C 5,1 C 92 % 1013,7 hPa 0,0 l/m 20,5 km/h (4 Bft) SW 227 0 min 0,000 mm 0 W/m 3,9 C -3,2 C 45,1 km/h (6 Bft) 100 %
11.12.2014 17:50 5,1 C 5,0 C 5,1 C 92 % 1013,7 hPa 0,0 l/m 22,9 km/h (4 Bft) S 171 0 min 0,000 mm 0 W/m 3,9 C -4,1 C 38,6 km/h (5 Bft) 100 %
11.12.2014 18:00 5,1 C 5,1 C 5,1 C 92 % 1013,7 hPa 0,2 l/m 22,1 km/h (4 Bft) W-SW 253 0 min 0,026 mm 0 W/m 3,9 C -3,8 C 45,1 km/h (6 Bft) 91 %
11.12.2014 18:10 5,2 C 5,1 C 5,2 C 92 % 1013,9 hPa 0,0 l/m 20,3 km/h (4 Bft) W-SW 247 0 min 0,000 mm 0 W/m 4,0 C -3,0 C 41,8 km/h (6 Bft) 100 %
11.12.2014 18:20 5,3 C 5,2 C 5,3 C 92 % 1014,0 hPa 0,0 l/m 19,3 km/h (3 Bft) W-SW 242 0 min 0,000 mm 0 W/m 4,1 C -2,5 C 45,1 km/h (6 Bft) 100 %
11.12.2014 18:30 5,3 C 5,3 C 5,3 C 92 % 1014,1 hPa 0,2 l/m 24,2 km/h (4 Bft) W-SW 239 0 min 0,000 mm 0 W/m 4,1 C -4,3 C 46,7 km/h (6 Bft) 100 %
11.12.2014 18:40 5,3 C 5,2 C 5,3 C 92 % 1013,9 hPa 0,4 l/m 22,1 km/h (4 Bft) W-NW 298 0 min 0,000 mm 0 W/m 4,1 C -3,6 C 46,7 km/h (6 Bft) 100 %
11.12.2014 18:50 5,2 C 5,2 C 5,3 C 92 % 1013,9 hPa 0,4 l/m 20,5 km/h (4 Bft) SW 229 0 min 0,000 mm 0 W/m 4,0 C -3,1 C 38,6 km/h (5 Bft) 100 %
11.12.2014 19:00 5,1 C 5,1 C 5,2 C 92 % 1013,8 hPa 0,0 l/m 22,0 km/h (4 Bft) SW 219 0 min 0,025 mm 0 W/m 3,9 C -3,8 C 40,2 km/h (6 Bft) 99 %
11.12.2014 19:10 5,1 C 5,1 C 5,2 C 92 % 1014,0 hPa 0,2 l/m 19,2 km/h (3 Bft) SW 235 0 min 0,000 mm 0 W/m 3,9 C -2,7 C 43,5 km/h (6 Bft) 100 %
11.12.2014 19:20 5,1 C 5,1 C 5,1 C 92 % 1013,8 hPa 0,2 l/m 16,5 km/h (3 Bft) SW 228 0 min 0,000 mm 0 W/m 3,9 C -1,5 C 41,8 km/h (6 Bft) 100 %
11.12.2014 19:30 5,1 C 5,1 C 5,1 C 92 % 1014,0 hPa 0,0 l/m 22,7 km/h (4 Bft) W 262 0 min 0,000 mm 0 W/m 3,9 C -4,0 C 41,8 km/h (6 Bft) 100 %
11.12.2014 19:40 5,2 C 5,1 C 5,2 C 92 % 1014,0 hPa 0,0 l/m 18,7 km/h (3 Bft) W-SW 257 0 min 0,000 mm 0 W/m 4,0 C -2,4 C 41,8 km/h (6 Bft) 100 %
11.12.2014 19:50 5,2 C 5,2 C 5,2 C 92 % 1014,0 hPa 0,2 l/m 18,7 km/h (3 Bft) SW 231 0 min 0,000 mm 0 W/m 4,0 C -2,4 C 37,0 km/h (5 Bft) 100 %
11.12.2014 20:00 5,2 C 5,2 C 5,2 C 92 % 1014,3 hPa 0,2 l/m 17,3 km/h (3 Bft) W-SW 258 0 min 0,026 mm 0 W/m 4,0 C -1,8 C 35,4 km/h (5 Bft) 91 %
11.12.2014 20:10 5,2 C 5,2 C 5,2 C 92 % 1014,4 hPa 0,6 l/m 13,4 km/h (3 Bft) SW 236 0 min 0,000 mm 0 W/m 4,0 C 0,2 C 33,8 km/h (5 Bft) 100 %
11.12.2014 20:20 5,2 C 5,2 C 5,2 C 92 % 1014,3 hPa 0,8 l/m 13,2 km/h (3 Bft) W 265 0 min 0,000 mm 0 W/m 4,0 C 0,3 C 27,4 km/h (4 Bft) 100 %
11.12.2014 20:30 5,2 C 5,2 C 5,2 C 92 % 1014,5 hPa 0,4 l/m 16,2 km/h (3 Bft) NW 319 0 min 0,000 mm 0 W/m 4,0 C -1,3 C 43,5 km/h (6 Bft) 100 %
11.12.2014 20:40 5,2 C 5,2 C 5,2 C 92 % 1014,4 hPa 0,2 l/m 22,4 km/h (4 Bft) W 261 0 min 0,000 mm 0 W/m 4,0 C -3,8 C 45,1 km/h (6 Bft) 100 %
11.12.2014 20:50 5,2 C 5,2 C 5,2 C 92 % 1014,6 hPa 0,0 l/m 20,0 km/h (4 Bft) W-SW 239 0 min 0,000 mm 0 W/m 4,0 C -2,9 C 40,2 km/h (6 Bft) 100 %
11.12.2014 21:00 5,2 C 5,2 C 5,2 C 92 % 1014,6 hPa 0,0 l/m 22,8 km/h (4 Bft) W-SW 248 0 min 0,025 mm 0 W/m 4,0 C -3,9 C 41,8 km/h (6 Bft) 100 %
11.12.2014 21:10 5,2 C 5,2 C 5,2 C 92 % 1014,7 hPa 0,0 l/m 19,3 km/h (3 Bft) W-SW 238 0 min 0,000 mm 0 W/m 4,0 C -2,6 C 35,4 km/h (5 Bft) 100 %
11.12.2014 21:20 5,2 C 5,2 C 5,2 C 92 % 1014,7 hPa 0,0 l/m 19,7 km/h (3 Bft) SW 234 0 min 0,000 mm 0 W/m 4,0 C -2,8 C 37,0 km/h (5 Bft) 100 %
11.12.2014 21:30 5,2 C 5,2 C 5,2 C 92 % 1014,9 hPa 0,0 l/m 16,8 km/h (3 Bft) W 259 0 min 0,000 mm 0 W/m 4,0 C -1,6 C 35,4 km/h (5 Bft) 100 %
11.12.2014 21:40 5,3 C 5,2 C 5,3 C 92 % 1015,0 hPa 0,0 l/m 17,5 km/h (3 Bft) SW 220 0 min 0,000 mm 0 W/m 4,1 C -1,7 C 32,2 km/h (5 Bft) 100 %
11.12.2014 21:50 5,3 C 5,2 C 5,3 C 92 % 1015,1 hPa 0,0 l/m 17,4 km/h (3 Bft) W-SW 238 0 min 0,000 mm 0 W/m 4,1 C -1,7 C 37,0 km/h (5 Bft) 100 %
11.12.2014 22:00 5,3 C 5,3 C 5,3 C 92 % 1015,1 hPa 0,0 l/m 18,5 km/h (3 Bft) S-SW 192 0 min 0,025 mm 0 W/m 4,1 C -2,2 C 40,2 km/h (6 Bft) 100 %
11.12.2014 22:10 5,3 C 5,3 C 5,3 C 92 % 1014,9 hPa 0,0 l/m 18,0 km/h (3 Bft) SW 232 0 min 0,000 mm 0 W/m 4,1 C -2,0 C 35,4 km/h (5 Bft) 100 %
11.12.2014 22:20 5,3 C 5,3 C 5,3 C 92 % 1015,4 hPa 0,0 l/m 16,4 km/h (3 Bft) W-SW 238 0 min 0,000 mm 0 W/m 4,1 C -1,2 C 33,8 km/h (5 Bft) 100 %
11.12.2014 22:30 5,3 C 5,3 C 5,3 C 92 % 1015,4 hPa 0,0 l/m 14,6 km/h (3 Bft) SW 236 0 min 0,000 mm 0 W/m 4,1 C -0,4 C 33,8 km/h (5 Bft) 100 %
11.12.2014 22:40 5,3 C 5,3 C 5,3 C 92 % 1015,4 hPa 0,0 l/m 16,4 km/h (3 Bft) S-SW 204 0 min 0,000 mm 0 W/m 4,1 C -1,2 C 32,2 km/h (5 Bft) 100 %
11.12.2014 22:50 5,2 C 5,2 C 5,3 C 92 % 1015,5 hPa 0,0 l/m 13,3 km/h (3 Bft) SW 222 0 min 0,000 mm 0 W/m 4,0 C 0,2 C 29,0 km/h (5 Bft) 100 %
11.12.2014 23:00 5,1 C 5,1 C 5,2 C 92 % 1015,7 hPa 0,4 l/m 13,7 km/h (3 Bft) W 271 0 min 0,000 mm 0 W/m 3,9 C -0,1 C 30,6 km/h (5 Bft) 100 %
11.12.2014 23:10 5,0 C 5,0 C 5,1 C 92 % 1015,3 hPa 0,8 l/m 11,0 km/h (2 Bft) W-SW 246 0 min 0,000 mm 0 W/m 3,8 C 1,4 C 25,7 km/h (4 Bft) 99 %
11.12.2014 23:20 4,9 C 4,9 C 5,1 C 92 % 1015,3 hPa 0,4 l/m 6,3 km/h (2 Bft) SW 231 0 min 0,000 mm 0 W/m 3,7 C 4,9 C 16,1 km/h (3 Bft) 100 %
11.12.2014 23:30 5,0 C 4,9 C 5,0 C 92 % 1015,1 hPa 0,0 l/m 8,0 km/h (2 Bft) W-SW 247 0 min 0,000 mm 0 W/m 3,8 C 3,6 C 25,7 km/h (4 Bft) 98 %
11.12.2014 23:40 5,1 C 5,0 C 5,1 C 92 % 1015,1 hPa 0,4 l/m 11,3 km/h (2 Bft) W-SW 247 0 min 0,000 mm 0 W/m 3,9 C 1,3 C 25,7 km/h (4 Bft) 98 %
11.12.2014 23:50 5,2 C 5,1 C 5,2 C 92 % 1015,0 hPa 0,0 l/m 12,9 km/h (3 Bft) W-SW 247 0 min 0,000 mm 0 W/m 4,0 C 0,5 C 30,6 km/h (5 Bft) 97 %
_ Min-Zeit 00:00 00:00 00:00 11:50 14:40 - 00:30 - - - - - 00:00 16:00 01:40 07:10
Minimum _ 3,3 C 3,3 C 3,3 C 84 % 1012,8 hPa - 4,8 km/h (1 Bft) - - - - - 2,1 C -4,8 C 11,3 km/h (2 Bft) 90 %
_ Max-Zeit 14:10 13:50 14:10 05:50 00:10 20:20 12:40 - - 00:00 14:00 14:10 18:20 23:20 16:30 00:00
Maximum _ 6,2 C 6,1 C 6,2 C 93 % 1019,1 hPa 0,8 l/m 26,6 km/h
S-SW (4 Bft)
- - 0 min 0,051 mm 62 W/m 4,1 C 4,9 C 54,7 km/h
S-SW (7 Bft)
100 %
Durchschnitt _ 4,8 C 4,8 C 4,9 C 91 % 1015,4 hPa #7,6 l/m 16,8 km/h (3 Bft) SW - #0 min. #0,406 mm 26 W/m 3,4 C -1,5 C 34,0 km/h (5 Bft) 100 %
PRIVATE WETTERSTATION BILLIGHEIM-ALLFELD - www.neckar-odenwald-wetter.de - Holger Sonntag